STARLINK-36850, 68119

Orbit data source: Space-Track

STARLINK-36850, 68119 is a payload satellite owned by SpaceX/Seattle (US) in SSO that was launched on Sun, 08 Mar 2026 UTC via an FALCON 9 launch vehicle from the Air Force Western Test Range (AFWTR). Payload-class satellites include a variety of spacecraft equipped with specific instruments for various scientific and technological missions. These include communications satellites like Starlink; space stations such as the ISS; scientific satellites like the Hubble; Earth observation satellites from companies like Planet Labs, Umbra, and HawkEye 360; GPS; miniature CubeSats for education and research; and military/defense satellites.

Loading next visibility...
Identifier
68119, 2026-044U
Orbit
SSO
Country
Flag of USUS
Related business
Manufacturer
SpaceX/Seattle
Mission
Operational Commercial Communications
Bus & Motor
STARLINK V2MO, Unknown motor
Mass
575 kg wet, ~530 kg dry
Launch date (UTC)
2026-03-08 (6 months ago)
Launch vehicle
FALCON 9
Launch site
Air Force Western Test Range (AFWTR)
Object type
Payload
Rocket body
Debris
Shape & HBR
Box + 1 Pan, 17.7 m
Radar Cross Section
41.120 m², Large (>1 m²)

Expand to show TLE details & history
Last TLE update: 16 hours ago

TLE from 16 hours ago
0 STARLINK-36850
1 68119U 26044U   26246.75291217  .00004125  00000-0  13003-3 0  9997
2 68119  97.2853 205.9755 0001793  75.0457 285.0984 15.33441715 28877
Epoch: 2026-09-03T18:04Z
TLE epoch observation values (Epoch: 2026-09-03T18:04:11.611Z)
Latitude
-0.00004°
Longitude
-47.95944°
Altitude
468.345 km
Speed
7.632 km/s
True Right ascension
13h 43m 54s
True Declination
0° 00' 00"
Sunlit
Object was in daylight at epoch
Visualization orbit readout
Latitude
Unknown
Longitude
Unknown
Altitude
Unknown
Speed
Unknown
Apparent Right ascension
Unknown
Apparent Declination
Unknown
Sunlit
N/A
Visualization observer readout
Local Sidereal Time
01:43:13
Azimuth
Unknown
Elevation
Unknown
Doppler factor
Unknown
Orbital elements
Apogee altitude
463.722 km
Perigee altitude
461.269 km
Semi-major axis
6,840.633 km
Eccentricity
0.00018
Inclination
97.2853°
RAAN
205.9755°
Arg. of periapsis
75.0457°
True anomaly
285.07856°
Mean anomaly
285.0984°
Eccentric anomaly
285.08848°
Mean motion
3.83618 °/min
Orbital period
93.84 mins
BSTAR
0.00013003
Loading maneuver chart data...
Computing Atmospheric mass density...
Loading historical data...
Loading historical data...
Loading historical data...
Loading historical data...
Loading historical data...
Loading historical data...
Loading historical data...

Documentation

Showing up to 5 results
|